DW7628 Weather Reports


Display with metric or nautical units.
time (UTC)temp
F
wind
direction
speed
MPH
gust
MPH
rain 1hr
in
rain 24hr
in
rain mn
in
humidity
%
barometer
mb
20260903151805 93 236 0.0 0.0 0.00 0.00 0.00 35 1010.6
20260903151305 92 153 0.0 0.0 0.00 0.00 0.00 35 1010.6
20260903150807 92 7 0.0 0.0 0.00 0.00 0.00 34 1010.6
20260903150305 92 62 0.0 0.0 0.00 0.00 0.00 32 1010.6
20260903145805 93 49 0.0 0.0 0.00 0.00 0.00 33 1010.6
20260903145306 92 157 0.0 0.0 0.00 0.00 0.00 33 1010.7
20260903144806 92 4 0.0 0.0 0.00 0.00 0.00 33 1010.7
20260903144305 93 143 0.0 0.0 0.00 0.00 0.00 33 1010.7
20260903143805 93 157 0.0 0.0 0.00 0.00 0.00 32 1010.8
20260903143305 92 58 0.0 0.0 0.00 0.00 0.00 33 1010.7
20260903142805 93 42 0.0 0.0 0.00 0.00 0.00 32 1010.7
20260903142306 93 206 0.0 0.0 0.00 0.00 0.00 32 1010.7
20260903141805 93 234 0.0 0.0 0.00 0.00 0.00 32 1010.8
20260903141305 94 36 0.0 0.0 0.00 0.00 0.00 31 1010.8
20260903140805 94 34 0.0 0.0 0.00 0.00 0.00 30 1010.9
20260903140305 95 69 0.0 0.0 0.00 0.00 0.00 28 1010.9
20260903135805 95 244 0.0 0.0 0.00 0.00 0.00 28 1010.9
20260903135307 95 135 0.0 0.0 0.00 0.00 0.00 27 1011.0
20260903134806 95 168 0.0 0.0 0.00 0.00 0.00 27 1010.9
20260903134305 95 150 0.0 0.0 0.00 0.00 0.00 27 1011.0
20260903133805 95 160 0.0 0.0 0.00 0.00 0.00 25 1011.0
20260903133306 95 177 0.0 0.0 0.00 0.00 0.00 25 1011.1
20260903132805 94 238 0.0 0.0 0.00 0.00 0.00 25 1010.9
20260903132306 94 133 0.0 0.0 0.00 0.00 0.00 25 1011.1
20260903131305 94 16 0.0 0.0 0.00 0.00 0.00 24 1011.2
20260903130805 94 259 0.0 0.0 0.00 0.00 0.00 24 1011.2
20260903130305 95 274 0.0 0.0 0.00 0.00 0.00 22 1011.3
20260903125805 96 104 0.0 0.0 0.00 0.00 0.00 22 1011.3
20260903124805 95 187 0.0 0.0 0.00 0.00 0.00 23 1011.3
20260903124305 95 112 0.0 0.0 0.00 0.00 0.00 22 1011.4
20260903123805 95 345 0.0 0.0 0.00 0.00 0.00 22 1011.5
20260903123307 95 50 0.0 0.0 0.00 0.00 0.00 23 1011.5
20260903122306 94 137 0.0 0.0 0.00 0.00 0.00 23 1011.5
20260903121805 94 74 0.0 0.0 0.00 0.00 0.00 22 1011.7
20260903121305 95 45 0.0 0.0 0.00 0.00 0.00 21 1011.7
20260903120805 95 131 0.0 0.0 0.00 0.00 0.00 21 1011.7
20260903120306 95 71 0.0 0.0 0.00 0.00 0.00 22 1011.7
20260903115806 95 55 0.0 0.0 0.00 0.00 0.00 23 1011.7
20260903115306 95 22 0.0 0.0 0.00 0.00 0.00 24 1011.8
20260903114804 94 121 0.0 0.0 0.00 0.00 0.00 23 1011.8
20260903114305 94 72 0.0 0.0 0.00 0.00 0.00 23 1011.7
20260903113805 94 50 0.0 0.0 0.00 0.00 0.00 23 1011.7
20260903112305 95 165 0.0 0.0 0.00 0.00 0.00 23 1011.9
20260903111805 96 83 0.0 0.0 0.00 0.00 0.00 22 1011.9
20260903111306 95 273 0.0 0.0 0.00 0.00 0.00 23 1012.0
20260903110808 94 151 0.0 0.0 0.00 0.00 0.00 25 1012.0
20260903110304 94 23 0.0 0.0 0.00 0.00 0.00 24 1012.2
20260903105805 94 161 0.0 0.0 0.00 0.00 0.00 24 1012.2
20260903105306 94 278 0.0 0.0 0.00 0.00 0.00 24 1012.3
20260903104806 94 192 0.0 0.0 0.00 0.00 0.00 24 1012.3
20260903104306 93 108 0.0 0.0 0.00 0.00 0.00 25 1012.4
20260903103804 92 337 0.0 0.0 0.00 0.00 0.00 25 1012.4
20260903103304 93 344 0.0 0.0 0.00 0.00 0.00 25 1012.5
20260903102805 93 26 0.0 0.0 0.00 0.00 0.00 25 1012.6
20260903102306 93 69 0.0 0.0 0.00 0.00 0.00 25 1012.6
20260903101805 93 50 0.0 0.0 0.00 0.00 0.00 25 1012.8
20260903101305 93 356 0.0 0.0 0.00 0.00 0.00 24 1012.8
20260903100306 93 216 0.0 0.0 0.00 0.00 0.00 24 1012.9
20260903095805 92 245 0.0 0.0 0.00 0.00 0.00 24 1013.0
20260903095306 92 4 0.0 0.0 0.00 0.00 0.00 24 1013.2
20260903094805 92 116 0.0 0.0 0.00 0.00 0.00 24 1013.2
20260903094304 92 219 0.0 0.0 0.00 0.00 0.00 25 1013.3
20260903093805 91 125 0.0 0.0 0.00 0.00 0.00 25 1013.4
20260903093305 91 49 0.0 0.0 0.00 0.00 0.00 25 1013.4
20260903092805 91 213 0.0 0.0 0.00 0.00 0.00 26 1013.5
20260903092306 91 331 0.0 0.0 0.00 0.00 0.00 25 1013.6
20260903090805 90 193 0.0 0.0 0.00 0.00 0.00 27 1013.6
20260903090304 90 36 0.0 0.0 0.00 0.00 0.00 26 1013.6
20260903085805 90 128 0.0 0.0 0.00 0.00 0.00 27 1013.6
20260903085306 89 163 0.0 0.0 0.00 0.00 0.00 27 1013.6
20260903084804 89 157 0.0 0.0 0.00 0.00 0.00 27 1013.6
20260903083804 89 193 0.0 0.0 0.00 0.00 0.00 27 1013.5
20260903083304 89 199 0.0 0.0 0.00 0.00 0.00 28 1013.6
20260903082804 88 226 0.0 0.0 0.00 0.00 0.00 29 1013.6
20260903082306 87 6 0.0 0.0 0.00 0.00 0.00 28 1013.5
20260903081804 87 25 0.0 0.0 0.00 0.00 0.00 29 1013.5
20260903081305 86 50 0.0 0.0 0.00 0.00 0.00 29 1013.5
20260903080811 86 12 0.0 0.0 0.00 0.00 0.00 29 1013.5
20260903080305 86 29 0.0 0.0 0.00 0.00 0.00 29 1013.5
20260903075805 86 51 0.0 0.0 0.00 0.00 0.00 29 1013.5
20260903075306 86 35 0.0 0.0 0.00 0.00 0.00 29 1013.4
20260903074806 85 51 0.0 0.0 0.00 0.00 0.00 30 1013.4
20260903074304 85 19 0.0 0.0 0.00 0.00 0.00 30 1013.4
20260903073805 85 52 0.0 0.0 0.00 0.00 0.00 31 1013.4
20260903072804 85 27 0.0 0.0 0.00 0.00 0.00 30 1013.4
20260903072306 85 50 0.0 0.0 0.00 0.00 0.00 29 1013.4
20260903071804 85 1 0.0 0.0 0.00 0.00 0.00 29 1013.4
20260903071305 85 31 0.0 0.0 0.00 0.00 0.00 29 1013.4
20260903070804 85 60 0.0 0.0 0.00 0.00 0.00 29 1013.4
20260903070304 84 106 0.0 0.0 0.00 0.00 0.00 30 1013.5
20260903065805 83 355 0.0 0.0 0.00 0.00 0.00 31 1013.5
20260903065306 82 1 0.0 0.0 0.00 0.00 0.00 32 1013.5
20260903064804 81 351 0.0 0.0 0.00 0.00 0.00 33 1013.5
20260903064305 81 30 0.0 0.0 0.00 0.00 0.00 34 1013.6
20260903063305 81 27 0.0 0.0 0.00 0.00 0.00 34 1013.6
20260903062805 80 22 0.0 0.0 0.00 0.00 0.00 34 1013.6
20260903062306 80 16 0.0 0.0 0.00 0.00 0.00 34 1013.7
20260903061804 80 39 0.0 0.0 0.00 0.00 0.00 35 1013.6
20260903061304 79 38 0.0 0.0 0.00 0.00 0.00 36 1013.7
20260903060805 79 43 0.0 0.0 0.00 0.00 0.00 35 1013.7
20260903060305 78 44 0.0 0.0 0.00 0.00 0.00 36 1013.7
20260903055805 77 49 0.0 0.0 0.00 0.00 0.00 37 1013.7
20260903055306 76 16 0.0 0.0 0.00 0.00 0.00 38 1013.7
20260903054804 75 14 0.0 0.0 0.00 0.00 0.00 39 1013.6
20260903054305 75 38 0.0 0.0 0.00 0.00 0.00 40 1013.6
20260903053804 74 32 0.0 0.0 0.00 0.00 0.00 41 1013.6
20260903053304 74 32 0.0 0.0 0.00 0.00 0.00 42 1013.6
20260903052805 74 50 0.0 0.0 0.00 0.00 0.00 41 1013.5
20260903052307 74 68 0.0 0.0 0.00 0.00 0.00 41 1013.4
20260903051804 74 68 0.0 0.0 0.00 0.00 0.00 41 1013.4
20260903051305 74 68 0.0 0.0 0.00 0.00 0.00 41 1013.4
20260903050804 74 28 0.0 0.0 0.00 0.00 0.00 41 1013.3
20260903050304 74 14 0.0 0.0 0.00 0.00 0.00 41 1013.2
20260903045804 73 15 0.0 0.0 0.00 0.00 0.00 41 1013.2
20260903045306 73 242 0.0 0.0 0.00 0.00 0.00 41 1013.2
20260903044804 73 240 0.0 0.0 0.00 0.00 0.00 41 1013.2
20260903044304 74 357 0.0 0.0 0.00 0.00 0.00 41 1013.2
20260903043805 74 20 0.0 0.0 0.00 0.00 0.00 41 1013.1
20260903043304 74 20 0.0 0.0 0.00 0.00 0.00 41 1013.1
20260903042805 74 13 0.0 0.0 0.00 0.00 0.00 41 1013.1
20260903042306 73 13 0.0 0.0 0.00 0.00 0.00 41 1013.1
20260903041804 73 13 0.0 0.0 0.00 0.00 0.00 42 1013.1
20260903041304 73 45 0.0 0.0 0.00 0.00 0.00 43 1013.1
20260903040304 73 42 0.0 0.0 0.00 0.00 0.00 43 1013.0
20260903035804 73 43 0.0 0.0 0.00 0.00 0.00 44 1013.1
20260903035306 73 44 0.0 0.0 0.00 0.00 0.00 44 1013.1
20260903034804 73 44 0.0 0.0 0.00 0.00 0.00 44 1013.1
20260903034304 73 44 0.0 0.0 0.00 0.00 0.00 44 1013.1
20260903033805 73 44 0.0 0.0 0.00 0.00 0.00 44 1013.0
20260903033305 73 44 0.0 0.0 0.00 0.00 0.00 45 1013.0
20260903032306 73 44 0.0 0.0 0.00 0.00 0.00 44 1013.0
20260903031804 73 41 0.0 0.0 0.00 0.00 0.00 44 1013.0
20260903031304 73 32 0.0 0.0 0.00 0.00 0.00 44 1013.0
20260903030304 73 293 0.0 0.0 0.00 0.00 0.00 46 1013.1
20260903025804 73 6 0.0 0.0 0.00 0.00 0.00 46 1013.1
20260903025306 73 4 0.0 0.0 0.00 0.00 0.00 46 1013.1
20260903024805 73 45 0.0 0.0 0.00 0.00 0.00 48 1013.1
20260903024304 73 48 0.0 0.0 0.00 0.00 0.00 49 1013.2
20260903023304 73 47 0.0 0.0 0.00 0.00 0.00 49 1013.2
20260903022803 73 46 0.0 0.0 0.00 0.00 0.00 49 1013.3
20260903022306 73 40 0.0 0.0 0.00 0.00 0.00 49 1013.4
20260903021804 73 133 0.0 0.0 0.00 0.00 0.00 49 1013.4
20260903020804 73 216 0.0 0.0 0.00 0.00 0.00 50 1013.4
20260903015804 73 226 0.0 0.0 0.00 0.00 0.00 50 1013.5
20260903015306 73 141 0.0 0.0 0.00 0.00 0.00 50 1013.5
20260903014804 73 141 0.0 0.0 0.00 0.00 0.00 49 1013.5
20260903013804 74 127 0.0 0.0 0.00 0.00 0.00 49 1013.5
20260903013304 74 126 0.0 0.0 0.00 0.00 0.00 49 1013.5
20260903012307 74 62 0.0 0.0 0.00 0.00 0.00 50 1013.5
20260903011804 74 62 0.0 0.0 0.00 0.00 0.00 51 1013.6
20260903011304 74 62 0.0 0.0 0.00 0.00 0.00 51 1013.6
20260903010803 74 75 0.0 0.0 0.00 0.00 0.00 51 1013.6
20260903010305 74 76 0.0 0.0 0.00 0.00 0.00 52 1013.6
20260903005804 74 77 0.0 0.0 0.00 0.00 0.00 53 1013.7
20260903005306 74 75 0.0 0.0 0.00 0.00 0.00 53 1013.7
20260903004306 74 74 0.0 0.0 0.00 0.00 0.00 54 1013.7
20260903003806 74 73 0.0 0.0 0.00 0.00 0.00 54 1013.7
20260903003306 74 82 0.0 0.0 0.00 0.00 0.00 54 1013.8
20260903002806 74 82 0.0 0.0 0.00 0.00 0.00 56 1013.8
20260903002306 74 89 0.0 0.0 0.00 0.00 0.00 56 1013.9
20260903001806 74 91 0.0 0.0 0.00 0.00 0.00 57 1014.0
20260903001307 74 56 0.0 0.0 0.00 0.00 0.00 57 1014.0
20260903000806 74 65 0.0 0.0 0.00 0.00 0.00 58 1014.0
20260903000306 74 65 0.0 0.0 0.00 0.00 0.00 57 1014.0
20260902235806 74 61 0.0 0.0 0.00 0.00 0.00 57 1014.1
20260902235306 74 356 0.0 0.0 0.00 0.00 0.00 57 1014.2
20260902234306 75 57 0.0 0.0 0.00 0.00 0.00 56 1014.2
20260902233806 75 53 0.0 0.0 0.00 0.00 0.00 56 1014.2
20260902233306 75 35 0.0 0.0 0.00 0.00 0.00 56 1014.3
20260902232806 75 19 0.0 0.0 0.00 0.00 0.00 56 1014.3
20260902232306 75 23 0.0 0.0 0.00 0.00 0.00 55 1014.3
20260902231806 75 56 0.0 0.0 0.00 0.00 0.00 55 1014.3
20260902231306 75 49 0.0 0.0 0.00 0.00 0.00 55 1014.4
20260902230306 76 56 0.0 0.0 0.00 0.00 0.00 55 1014.4
20260902225806 76 34 0.0 0.0 0.00 0.00 0.00 55 1014.5
20260902225306 76 7 0.0 0.0 0.00 0.00 0.00 56 1014.5
20260902224807 76 349 0.0 0.0 0.00 0.00 0.00 56 1014.5
20260902224306 76 143 0.0 0.0 0.00 0.00 0.00 56 1014.5
20260902223806 76 67 0.0 0.0 0.00 0.00 0.00 56 1014.6
20260902222806 76 110 0.0 0.0 0.00 0.00 0.00 56 1014.6
20260902222306 76 120 0.0 0.0 0.00 0.00 0.00 56 1014.6
20260902221806 76 65 0.0 0.0 0.00 0.00 0.00 56 1014.6
20260902221306 76 54 0.0 0.0 0.00 0.00 0.00 55 1014.6
20260902220826 76 61 0.0 0.0 0.00 0.00 0.00 54 1014.7
20260902220306 76 95 0.0 0.0 0.00 0.00 0.00 54 1014.6
20260902215806 77 52 0.0 0.0 0.00 0.00 0.00 53 1014.7
20260902215306 77 77 0.0 0.0 0.00 0.00 0.00 52 1014.7
20260902214806 77 133 0.0 0.0 0.00 0.00 0.00 51 1014.7
20260902213306 77 33 0.0 0.0 0.00 0.00 0.00 51 1014.7
20260902212805 77 181 0.0 0.0 0.00 0.00 0.00 51 1014.6
20260902212307 77 182 0.0 0.0 0.00 0.00 0.00 50 1014.7
20260902211805 77 161 0.0 0.0 0.00 0.00 0.00 50 1014.7
20260902211306 78 164 0.0 0.0 0.00 0.00 0.00 49 1014.7
20260902210806 78 130 0.0 0.0 0.00 0.00 0.00 47 1014.8
20260902210308 78 130 0.0 0.0 0.00 0.00 0.00 46 1014.8
20260902205805 78 130 0.0 0.0 0.00 0.00 0.00 46 1014.8
20260902205307 78 30 0.0 0.0 0.00 0.00 0.00 46 1014.7
20260902204806 78 148 0.0 0.0 0.00 0.00 0.00 46 1014.7
20260902204306 78 122 0.0 0.0 0.00 0.00 0.00 46 1014.7
20260902203806 78 231 0.0 0.0 0.00 0.00 0.00 47 1014.8
20260902203306 78 215 0.0 0.0 0.00 0.00 0.00 46 1014.8
20260902202806 78 235 0.0 0.0 0.00 0.00 0.00 46 1014.8
20260902202306 78 218 0.0 0.0 0.00 0.00 0.00 47 1014.7
20260902201305 78 348 0.0 0.0 0.00 0.00 0.00 51 1014.8
20260902200806 78 180 0.0 0.0 0.00 0.00 0.00 50 1014.8
20260902200305 78 122 0.0 0.0 0.00 0.00 0.00 48 1014.8
20260902195307 79 15 0.0 0.0 0.00 0.00 0.00 46 1014.8
20260902194806 79 32 0.0 0.0 0.00 0.00 0.00 45 1014.8
20260902194305 79 204 0.0 0.0 0.00 0.00 0.00 45 1014.8
20260902193806 79 229 0.0 0.0 0.00 0.00 0.00 46 1014.8
20260902193305 79 220 0.0 0.0 0.00 0.00 0.00 46 1014.8
20260902192307 80 35 0.0 0.0 0.00 0.00 0.00 46 1014.8
20260902191806 80 58 0.0 0.0 0.00 0.00 0.00 45 1014.7
20260902191305 80 154 0.0 0.0 0.00 0.00 0.00 44 1014.7
20260902190806 80 130 0.0 0.0 0.00 0.00 0.00 44 1014.6
20260902190305 81 50 0.0 0.0 0.00 0.00 0.00 43 1014.6
20260902185805 81 11 0.0 0.0 0.00 0.00 0.00 42 1014.6
20260902185307 81 345 0.0 0.0 0.00 0.00 0.00 41 1014.6
20260902184806 81 18 0.0 0.0 0.00 0.00 0.00 40 1014.5
20260902184306 81 28 0.0 0.0 0.00 0.00 0.00 40 1014.4
20260902183808 81 108 0.0 0.0 0.00 0.00 0.00 39 1014.3
20260902183306 81 9 0.0 0.0 0.00 0.00 0.00 39 1014.3
20260902182806 82 68 0.0 0.0 0.00 0.00 0.00 39 1014.2
20260902182306 82 111 0.0 0.0 0.00 0.00 0.00 40 1014.2
20260902181807 82 205 0.0 0.0 0.00 0.00 0.00 40 1014.2
20260902181305 82 359 0.0 0.0 0.00 0.00 0.00 40 1014.1
20260902180806 82 68 0.0 0.0 0.00 0.00 0.00 39 1014.0
20260902180306 83 5 0.0 0.0 0.00 0.00 0.00 39 1014.0
20260902175805 83 114 0.0 0.0 0.00 0.00 0.00 38 1013.9
20260902175307 83 71 0.0 0.0 0.00 0.00 0.00 37 1013.8
20260902174806 83 66 0.0 0.0 0.00 0.00 0.00 36 1013.8
20260902174305 83 64 0.0 0.0 0.00 0.00 0.00 35 1013.7
20260902173805 84 20 0.0 0.0 0.00 0.00 0.00 34 1013.7
20260902173305 84 223 0.0 0.0 0.00 0.00 0.00 37 1013.6
20260902172806 84 47 0.0 0.0 0.00 0.00 0.00 38 1013.6
20260902172308 85 42 0.0 0.0 0.00 0.00 0.00 37 1013.6
20260902171306 85 41 0.0 0.0 0.00 0.00 0.00 36 1013.7
20260902170805 85 44 0.0 0.0 0.00 0.00 0.00 35 1013.6
20260902165805 87 112 0.0 0.0 0.00 0.00 0.00 33 1013.6
20260902164305 89 29 0.0 0.0 0.00 0.00 0.00 31 1013.6
20260902163306 89 30 0.0 0.0 0.00 0.00 0.00 25 1013.6
20260902162806 90 2 0.0 0.0 0.00 0.00 0.00 25 1013.5
20260902161805 90 90 0.0 0.0 0.00 0.00 0.00 25 1013.5
20260902161305 91 5 0.0 0.0 0.00 0.00 0.00 23 1013.5
20260902160807 91 39 0.0 0.0 0.00 0.00 0.00 24 1013.5
20260902160305 91 131 0.0 0.0 0.00 0.00 0.00 24 1013.4
20260902155806 91 43 0.0 0.0 0.00 0.00 0.00 24 1013.4
20260902155307 92 40 0.0 0.0 0.00 0.00 0.00 24 1013.3
20260902154306 93 17 0.0 0.0 0.00 0.00 0.00 23 1013.4
20260902153806 93 234 0.0 0.0 0.00 0.00 0.00 23 1013.4
20260902152805 93 34 0.0 0.0 0.00 0.00 0.00 23 1013.4
20260902152307 93 121 0.0 0.0 0.00 0.00 0.00 23 1013.5